Starlink 33893

operational
NORAD ID: 64253 Int'l Des: 2025-119 Owner: SPXS Country: US Constellation: starlink
LEOCIRCULAR

Starlink 33893について

説明を読み込み中...

リアルタイム位置

3D地球を読み込み中...

次回通過

高度履歴

Altitude vs Time

uPlot chart will show altitude changes over time

軌道要素

1 64253U 25119W 25308.25630562 .00027594 00000-0 10081-2 0 9994
2 64253 43.0008 295.6282 0000883 238.0545 122.0221 15.27592692 24988
Epoch: Nov 4, 2025 • Age: 11 hours

現在のステータス

高度 485.7 km
速度 7.63 km/s
衛星直下点 39.54°N, 102.71°E
打ち上げ日 Jun 3, 2025
運用期間 0.4 years
タイプ internet

技術仕様

分類 Payload
質量 575.00 kg
乾燥質量 530.00 kg
総質量 575.00 kg
長さ 0.30 m
直径 4.10 m
スパン 29.00 m
形状 Box + pan
製造者 SPXS
バスタイプ Starlink V2MO
フェーズステータス In Orbit
所有者/国 SPXS/US

大規模コンステレーション

Loading constellations...